DLH432 EDDF-KORD

Flight info

Callsign DLH432
Flight time N/A
Altitude 32000
Route OBOKA Z28 DIBIR DCT BUDIP DCT TOPPA DCT ADN DCT DEVBI DCT RATSU DCT 63N020W 64N030W 64N040W 63N050W DCT LIBOR DCT RODBO DCT 55N078W 50N085W DCT SHIKY FYTTE7
Aircraft A343/H-SDE2E3FGHIJ4J5M1RWXY/LB1D1

Departure

Time 2026-04-15 05:59
Airport Frankfurt Main Airport (EDDF)

Arrival

Time N/A
Airport Chicago O'Hare International Airport (KORD)
Time Latitude Longitude Altitude Speed Heading
2026-04-15 05:15 50.04685 8.56038 368 ft 0 kts 340°
2026-04-15 05:47 50.04680 8.56041 360 ft 4 kts 340°
2026-04-15 05:47 50.04655 8.56055 364 ft 4 kts 340°
2026-04-15 05:47 50.04630 8.56070 365 ft 4 kts 337°
2026-04-15 05:48 50.04606 8.56088 363 ft 4 kts 323°
2026-04-15 05:48 50.04591 8.56114 368 ft 4 kts 261°
2026-04-15 05:48 50.04591 8.56115 368 ft 3 kts 250°
2026-04-15 05:48 50.04581 8.56075 361 ft 4 kts 248°
2026-04-15 05:49 50.04576 8.56056 364 ft 0 kts 250°
2026-04-15 05:51 50.04574 8.56046 362 ft 3 kts 250°
2026-04-15 05:51 50.04559 8.55998 363 ft 7 kts 238°
2026-04-15 05:51 50.04508 8.55948 367 ft 11 kts 198°
2026-04-15 05:51 50.04438 8.55914 366 ft 10 kts 195°
2026-04-15 05:52 50.04370 8.55916 361 ft 10 kts 166°
2026-04-15 05:52 50.04302 8.55952 363 ft 11 kts 160°
2026-04-15 05:52 50.04239 8.55931 366 ft 9 kts 230°
2026-04-15 05:52 50.04211 8.55820 363 ft 14 kts 249°
2026-04-15 05:53 50.04171 8.55654 360 ft 19 kts 249°
2026-04-15 05:53 50.04121 8.55445 363 ft 21 kts 249°
2026-04-15 05:53 50.04072 8.55239 361 ft 19 kts 250°
2026-04-15 05:53 50.04027 8.55052 362 ft 18 kts 250°
2026-04-15 05:54 50.03985 8.54873 362 ft 18 kts 249°
2026-04-15 05:54 50.03941 8.54691 358 ft 18 kts 250°
2026-04-15 05:54 50.03898 8.54509 356 ft 18 kts 250°
2026-04-15 05:54 50.03859 8.54368 357 ft 13 kts 239°
2026-04-15 05:55 50.03811 8.54257 359 ft 12 kts 241°
2026-04-15 05:55 50.03776 8.54124 353 ft 16 kts 249°
2026-04-15 05:55 50.03732 8.53939 354 ft 21 kts 249°
2026-04-15 05:55 50.03678 8.53715 356 ft 22 kts 249°
2026-04-15 05:56 50.03624 8.53498 350 ft 21 kts 249°
2026-04-15 05:56 50.03573 8.53289 354 ft 21 kts 250°
2026-04-15 05:56 50.03524 8.53083 352 ft 20 kts 249°
2026-04-15 05:56 50.03476 8.52887 337 ft 16 kts 247°
2026-04-15 05:57 50.03435 8.52737 335 ft 13 kts 249°
2026-04-15 05:57 50.03408 8.52627 336 ft 6 kts 249°
2026-04-15 05:57 50.03383 8.52599 336 ft 4 kts 195°
2026-04-15 05:57 50.03356 8.52595 336 ft 4 kts 180°
2026-04-15 05:58 50.03259 8.52594 334 ft 35 kts 180°
2026-04-15 05:58 50.02834 8.52600 336 ft 86 kts 180°
2026-04-15 05:58 50.02076 8.52607 334 ft 130 kts 180°
2026-04-15 05:58 50.01041 8.52619 335 ft 166 kts 179°
2026-04-15 05:59 49.99847 8.52653 740 ft 168 kts 178°
2026-04-15 05:59 49.98693 8.52671 1190 ft 169 kts 179°
2026-04-15 05:59 49.97540 8.52266 1540 ft 178 kts 213°
2026-04-15 05:59 49.96597 8.50888 1794 ft 192 kts 223°
2026-04-15 06:00 49.95645 8.49334 2081 ft 204 kts 224°
2026-04-15 06:00 49.94623 8.47725 2399 ft 216 kts 223°
2026-04-15 06:00 49.93529 8.46013 2616 ft 235 kts 223°
2026-04-15 06:00 49.92333 8.44155 2978 ft 250 kts 224°
2026-04-15 06:01 49.91055 8.42188 3346 ft 264 kts 223°
2026-04-15 06:01 49.89704 8.40184 3883 ft 272 kts 223°
2026-04-15 06:01 49.88372 8.38101 4455 ft 278 kts 230°
2026-04-15 06:01 49.87479 8.35420 5060 ft 284 kts 258°
2026-04-15 06:02 49.87531 8.32386 5716 ft 283 kts 288°
2026-04-15 06:02 49.88392 8.29658 6449 ft 282 kts 302°
2026-04-15 06:02 49.89459 8.27092 7083 ft 284 kts 303°
2026-04-15 06:02 49.90538 8.24549 7671 ft 285 kts 303°
2026-04-15 06:03 49.91625 8.21963 8320 ft 286 kts 303°
2026-04-15 06:03 49.92713 8.19347 8917 ft 289 kts 303°
2026-04-15 06:03 49.93842 8.16722 9426 ft 294 kts 308°
2026-04-15 06:03 49.95247 8.14449 9978 ft 297 kts 318°
2026-04-15 06:04 49.96814 8.12333 10461 ft 301 kts 319°
2026-04-15 06:04 49.98445 8.10179 10706 ft 314 kts 319°
2026-04-15 06:04 50.00145 8.07925 10900 ft 327 kts 319°
2026-04-15 06:04 50.01903 8.05584 11128 ft 339 kts 319°
2026-04-15 06:05 50.03727 8.03149 11335 ft 352 kts 319°
2026-04-15 06:05 50.05614 8.00624 11540 ft 363 kts 319°
2026-04-15 06:05 50.07556 7.98021 11830 ft 372 kts 319°
2026-04-15 06:05 50.09531 7.95370 12255 ft 376 kts 319°
2026-04-15 06:06 50.11523 7.92692 12739 ft 379 kts 319°
2026-04-15 06:06 50.13526 7.89996 13244 ft 382 kts 319°
2026-04-15 06:06 50.15515 7.87315 13738 ft 384 kts 318°
2026-04-15 06:06 50.17543 7.84579 14271 ft 385 kts 318°
2026-04-15 06:07 50.19574 7.81833 14738 ft 387 kts 318°
2026-04-15 06:07 50.21624 7.79062 15222 ft 389 kts 318°
2026-04-15 06:07 50.23679 7.76280 15688 ft 391 kts 319°
2026-04-15 06:07 50.25874 7.73747 16131 ft 394 kts 329°
2026-04-15 06:08 50.28306 7.71843 16624 ft 396 kts 335°
2026-04-15 06:08 50.30838 7.70104 17088 ft 398 kts 336°
2026-04-15 06:08 50.33386 7.68378 17553 ft 400 kts 336°
2026-04-15 06:08 50.35957 7.66630 18040 ft 402 kts 336°
2026-04-15 06:09 50.38506 7.64895 18494 ft 404 kts 336°
2026-04-15 06:09 50.41092 7.63122 18899 ft 406 kts 336°
2026-04-15 06:09 50.43689 7.61336 19272 ft 409 kts 336°
2026-04-15 06:09 50.45422 7.60143 19527 ft 410 kts 336°
2026-04-15 06:10 50.48048 7.58333 19914 ft 412 kts 336°
2026-04-15 06:10 50.50687 7.56512 20287 ft 414 kts 336°
2026-04-15 06:10 50.53337 7.54682 20671 ft 416 kts 336°
2026-04-15 06:10 50.55955 7.52697 21036 ft 418 kts 330°
2026-04-15 06:11 50.58450 7.50303 21406 ft 420 kts 327°
2026-04-15 06:11 50.60912 7.47791 21787 ft 422 kts 327°
2026-04-15 06:11 50.63348 7.45287 22121 ft 424 kts 327°
2026-04-15 06:11 50.65826 7.42738 22491 ft 426 kts 327°
2026-04-15 06:12 50.68318 7.40175 22873 ft 428 kts 327°
2026-04-15 06:12 50.70818 7.37601 23208 ft 430 kts 327°
2026-04-15 06:12 50.73274 7.34857 23537 ft 432 kts 321°
2026-04-15 06:12 50.75408 7.31561 23876 ft 434 kts 310°
2026-04-15 06:13 50.77297 7.27822 24166 ft 436 kts 308°
2026-04-15 06:13 50.79080 7.23946 24479 ft 437 kts 306°
2026-04-15 06:13 50.80819 7.19994 24785 ft 438 kts 306°
2026-04-15 06:13 50.82545 7.16012 25094 ft 439 kts 306°
2026-04-15 06:14 50.84273 7.12030 25380 ft 439 kts 306°
2026-04-15 06:14 50.86010 7.08051 25668 ft 440 kts 306°
2026-04-15 06:14 50.87766 7.04056 25940 ft 441 kts 306°
2026-04-15 06:14 50.89520 7.00080 26232 ft 441 kts 306°
2026-04-15 06:15 50.91289 6.96089 26491 ft 443 kts 306°
2026-04-15 06:15 50.93065 6.92077 26753 ft 444 kts 306°
2026-04-15 06:15 50.94839 6.88062 27008 ft 445 kts 306°
2026-04-15 06:15 50.96615 6.84037 27244 ft 446 kts 306°
2026-04-15 06:16 50.98369 6.80050 27491 ft 447 kts 306°
2026-04-15 06:16 51.00171 6.75950 27736 ft 448 kts 306°
2026-04-15 06:16 51.01929 6.71943 27961 ft 449 kts 306°
2026-04-15 06:16 51.03714 6.67867 28213 ft 450 kts 306°
2026-04-15 06:17 51.05503 6.63776 28445 ft 451 kts 306°
2026-04-15 06:17 51.07303 6.59657 28590 ft 453 kts 306°
2026-04-15 06:17 51.09109 6.55517 28774 ft 454 kts 306°
2026-04-15 06:17 51.10897 6.51423 29025 ft 455 kts 306°
2026-04-15 06:18 51.12697 6.47280 29351 ft 453 kts 306°
2026-04-15 06:18 51.14486 6.43148 29706 ft 451 kts 305°
2026-04-15 06:18 51.16266 6.39031 30046 ft 450 kts 305°
2026-04-15 06:18 51.18036 6.34933 30377 ft 447 kts 305°
2026-04-15 06:19 51.19794 6.30857 30646 ft 446 kts 305°
2026-04-15 06:19 51.21534 6.26817 30881 ft 445 kts 305°
2026-04-15 06:19 51.23284 6.22749 31102 ft 444 kts 305°
2026-04-15 06:19 51.25027 6.18693 31304 ft 443 kts 305°
2026-04-15 06:20 51.26774 6.14623 31415 ft 445 kts 305°
2026-04-15 06:20 51.28522 6.10542 31594 ft 445 kts 305°
2026-04-15 06:20 51.30239 6.06437 31830 ft 443 kts 304°
2026-04-15 06:20 51.31924 6.02312 32055 ft 442 kts 304°
2026-04-15 06:21 51.33595 5.98182 32196 ft 442 kts 303°
2026-04-15 06:21 51.37037 5.90151 32213 ft 434 kts 310°
2026-04-15 06:22 51.41441 5.83709 32199 ft 433 kts 323°
2026-04-15 06:22 51.46384 5.78159 32210 ft 433 kts 325°
2026-04-15 06:23 51.51401 5.72763 32221 ft 435 kts 324°
2026-04-15 06:23 51.56433 5.67338 32206 ft 435 kts 324°
2026-04-15 06:24 51.61451 5.61877 32208 ft 435 kts 324°
2026-04-15 06:24 51.66459 5.56392 32210 ft 435 kts 324°
2026-04-15 06:25 51.71443 5.50916 32208 ft 435 kts 324°
2026-04-15 06:25 51.76442 5.45408 32209 ft 435 kts 324°
2026-04-15 06:26 51.81444 5.39883 32206 ft 435 kts 324°
2026-04-15 06:26 51.86414 5.34379 32199 ft 435 kts 323°
2026-04-15 06:27 51.91420 5.28818 32207 ft 437 kts 323°
2026-04-15 06:27 51.96440 5.23229 32207 ft 437 kts 323°
2026-04-15 06:28 52.01452 5.17634 32203 ft 437 kts 323°
2026-04-15 06:28 52.06443 5.12045 32200 ft 437 kts 323°
2026-04-15 06:29 52.11447 5.06426 32190 ft 437 kts 323°
2026-04-15 06:29 52.16457 5.00785 32189 ft 437 kts 323°
2026-04-15 06:30 52.21427 4.95174 32189 ft 437 kts 323°
2026-04-15 06:30 52.26422 4.89519 32183 ft 438 kts 323°
2026-04-15 06:31 52.31443 4.83817 32182 ft 439 kts 322°
2026-04-15 06:31 52.36465 4.78099 32183 ft 439 kts 322°
2026-04-15 06:32 52.41483 4.72370 32184 ft 439 kts 322°
2026-04-15 06:32 52.46490 4.66637 32182 ft 439 kts 322°
2026-04-15 06:33 52.51458 4.60932 32184 ft 438 kts 322°
2026-04-15 06:33 52.56456 4.55176 32183 ft 438 kts 322°
2026-04-15 06:34 52.61456 4.49402 32178 ft 438 kts 322°
2026-04-15 06:34 52.66444 4.43625 32177 ft 438 kts 322°
2026-04-15 06:35 52.71434 4.37830 32173 ft 438 kts 322°
2026-04-15 06:35 52.76424 4.32019 32183 ft 438 kts 322°
2026-04-15 06:36 52.81363 4.26250 32176 ft 438 kts 322°
2026-04-15 06:36 52.86336 4.20424 32173 ft 438 kts 322°
2026-04-15 06:37 52.91307 4.14584 32169 ft 438 kts 322°
2026-04-15 06:37 52.96277 4.08728 32171 ft 438 kts 322°
2026-04-15 06:38 53.01216 4.02893 32166 ft 439 kts 321°
2026-04-15 06:38 53.06211 3.96972 32165 ft 441 kts 321°
2026-04-15 06:39 53.11206 3.91037 32165 ft 441 kts 321°
2026-04-15 06:39 53.16199 3.85088 32159 ft 441 kts 321°
2026-04-15 06:40 53.21181 3.79132 32162 ft 441 kts 321°
2026-04-15 06:40 53.26156 3.73169 32159 ft 440 kts 321°
2026-04-15 06:41 53.31137 3.67180 32153 ft 440 kts 321°
2026-04-15 06:41 53.36032 3.61277 32154 ft 440 kts 321°
2026-04-15 06:42 53.41003 3.55261 32149 ft 442 kts 320°
2026-04-15 06:42 53.45886 3.48991 32138 ft 442 kts 318°
2026-04-15 06:43 53.50693 3.42566 32137 ft 442 kts 318°
2026-04-15 06:43 53.55515 3.36143 32138 ft 442 kts 318°
2026-04-15 06:44 53.60320 3.29778 32127 ft 442 kts 318°
2026-04-15 06:44 53.65161 3.23367 32127 ft 442 kts 318°
2026-04-15 06:45 53.69999 3.16940 32140 ft 442 kts 318°
2026-04-15 06:45 53.74827 3.10505 32112 ft 442 kts 318°
2026-04-15 06:46 53.79646 3.04058 32113 ft 444 kts 318°
2026-04-15 06:46 53.84494 2.97556 32110 ft 445 kts 318°
2026-04-15 06:47 53.89349 2.91028 32102 ft 445 kts 317°
2026-04-15 06:47 53.94163 2.84532 32102 ft 445 kts 317°
2026-04-15 06:48 53.99003 2.77981 32103 ft 444 kts 317°
2026-04-15 06:48 54.03845 2.71408 32091 ft 444 kts 317°
2026-04-15 06:49 54.08678 2.64826 32091 ft 444 kts 317°
2026-04-15 06:49 54.13489 2.58252 32092 ft 447 kts 317°
2026-04-15 06:50 54.20789 2.48241 32083 ft 448 kts 317°
2026-04-15 06:50 54.25660 2.41537 32081 ft 448 kts 317°
2026-04-15 06:51 54.30480 2.34882 32078 ft 448 kts 317°
2026-04-15 06:51 54.35326 2.28169 32070 ft 448 kts 317°
2026-04-15 06:52 54.40179 2.21425 32067 ft 448 kts 317°
2026-04-15 06:52 54.45021 2.14675 32064 ft 448 kts 317°
2026-04-15 06:53 54.49839 2.07934 32060 ft 451 kts 316°
2026-04-15 06:53 54.54718 2.01089 32056 ft 452 kts 316°
2026-04-15 06:54 54.59601 1.94219 32054 ft 452 kts 316°
2026-04-15 06:54 54.64441 1.87388 32044 ft 452 kts 316°
2026-04-15 06:55 54.69299 1.80508 32049 ft 452 kts 316°
2026-04-15 06:55 54.73343 1.74764 32048 ft 452 kts 316°
2026-04-15 06:56 54.78197 1.67849 32035 ft 451 kts 316°
2026-04-15 06:56 54.83061 1.60898 32036 ft 452 kts 316°
2026-04-15 06:57 54.87905 1.53947 32030 ft 456 kts 316°
2026-04-15 06:57 54.92803 1.46903 32018 ft 457 kts 315°
2026-04-15 06:58 54.97698 1.39842 32018 ft 457 kts 315°
2026-04-15 06:58 55.02564 1.32798 32018 ft 457 kts 315°
2026-04-15 06:59 55.07455 1.25693 32009 ft 457 kts 315°
2026-04-15 06:59 55.12344 1.18568 32007 ft 457 kts 315°
2026-04-15 07:00 55.17197 1.11471 32009 ft 457 kts 315°
2026-04-15 07:00 55.22097 1.04281 32002 ft 460 kts 315°
2026-04-15 07:01 55.27007 0.97052 32008 ft 461 kts 315°
2026-04-15 07:01 55.31901 0.89826 31992 ft 461 kts 315°
2026-04-15 07:02 55.36817 0.82543 31983 ft 462 kts 315°
2026-04-15 07:02 55.41703 0.75278 31981 ft 462 kts 315°
2026-04-15 07:03 55.46607 0.67963 31982 ft 462 kts 315°
2026-04-15 07:03 55.51518 0.60612 31973 ft 461 kts 315°
2026-04-15 07:04 55.56410 0.53265 31962 ft 462 kts 314°
2026-04-15 07:04 55.61317 0.45864 31979 ft 466 kts 314°
2026-04-15 07:05 55.66255 0.38398 31950 ft 467 kts 314°
2026-04-15 07:05 55.71200 0.30896 31963 ft 467 kts 314°
2026-04-15 07:06 55.76093 0.23447 31947 ft 466 kts 314°
2026-04-15 07:06 55.81017 0.15923 31949 ft 466 kts 314°
2026-04-15 07:07 55.85934 0.08385 31947 ft 466 kts 314°
2026-04-15 07:07 55.90862 0.00799 31984 ft 471 kts 314°
2026-04-15 07:08 55.95863 -0.06932 31887 ft 482 kts 314°
2026-04-15 07:08 55.98403 -0.10867 32041 ft 482 kts 314°
2026-04-15 07:08 56.00900 -0.14733 32302 ft 479 kts 314°
2026-04-15 07:09 56.03419 -0.18639 32548 ft 478 kts 313°
2026-04-15 07:09 56.05926 -0.22535 32734 ft 477 kts 313°
2026-04-15 07:09 56.08424 -0.26429 32933 ft 476 kts 313°
2026-04-15 07:09 56.10925 -0.30335 33108 ft 475 kts 313°
2026-04-15 07:10 56.13411 -0.34226 33297 ft 475 kts 313°
2026-04-15 07:10 56.15900 -0.38128 33459 ft 474 kts 313°
2026-04-15 07:10 56.18380 -0.42023 33637 ft 473 kts 312°
2026-04-15 07:10 56.20858 -0.45922 33787 ft 473 kts 312°
2026-04-15 07:11 56.23303 -0.49776 33902 ft 472 kts 312°
2026-04-15 07:11 56.25747 -0.53628 33905 ft 463 kts 312°
2026-04-15 07:11 56.30557 -0.61230 33934 ft 458 kts 312°
2026-04-15 07:12 56.35323 -0.68810 33911 ft 456 kts 312°
2026-04-15 07:12 56.40071 -0.76387 33921 ft 455 kts 312°
2026-04-15 07:13 56.44814 -0.83979 33906 ft 455 kts 311°
2026-04-15 07:13 56.49528 -0.91546 33925 ft 455 kts 311°
2026-04-15 07:14 56.54266 -0.99177 33907 ft 455 kts 311°
2026-04-15 07:14 56.58997 -1.06823 33899 ft 455 kts 311°
2026-04-15 07:15 56.63719 -1.14482 33896 ft 454 kts 311°
2026-04-15 07:15 56.68443 -1.22173 33888 ft 458 kts 311°
2026-04-15 07:16 56.73176 -1.29909 33882 ft 460 kts 311°
2026-04-15 07:16 56.77940 -1.37716 33884 ft 460 kts 311°
2026-04-15 07:17 56.82683 -1.45515 33872 ft 460 kts 311°
2026-04-15 07:17 56.87431 -1.53351 33872 ft 459 kts 311°
2026-04-15 07:18 56.92158 -1.61183 33875 ft 458 kts 311°
2026-04-15 07:18 56.96879 -1.69035 33859 ft 458 kts 311°
2026-04-15 07:19 57.01594 -1.76903 33888 ft 458 kts 311°
2026-04-15 07:19 57.06299 -1.84789 33863 ft 463 kts 311°
2026-04-15 07:20 57.11062 -1.92796 33843 ft 464 kts 311°
2026-04-15 07:20 57.15836 -2.00844 33831 ft 464 kts 311°
2026-04-15 07:21 57.20568 -2.08852 33830 ft 464 kts 311°
2026-04-15 07:21 57.25326 -2.16937 33830 ft 464 kts 310°
2026-04-15 07:22 57.30085 -2.25053 33829 ft 464 kts 310°
2026-04-15 07:22 57.34859 -2.33122 33834 ft 465 kts 311°
2026-04-15 07:23 57.39702 -2.41120 33830 ft 466 kts 311°
2026-04-15 07:23 57.44535 -2.49133 33824 ft 470 kts 311°
2026-04-15 07:24 57.49402 -2.57261 33816 ft 470 kts 311°
2026-04-15 07:24 57.54270 -2.65432 33802 ft 470 kts 311°
2026-04-15 07:25 57.59123 -2.73616 33795 ft 470 kts 311°
2026-04-15 07:25 57.63941 -2.81772 33799 ft 470 kts 311°
2026-04-15 07:26 57.68781 -2.89993 33773 ft 469 kts 311°
2026-04-15 07:26 57.73616 -2.98239 33759 ft 469 kts 311°
2026-04-15 07:27 57.78433 -3.06486 33760 ft 471 kts 311°
2026-04-15 07:27 57.83258 -3.14782 33759 ft 473 kts 311°
2026-04-15 07:28 57.88130 -3.23183 33748 ft 474 kts 311°
2026-04-15 07:28 57.92979 -3.31576 33765 ft 473 kts 311°
2026-04-15 07:29 57.97817 -3.39983 33767 ft 472 kts 311°
2026-04-15 07:29 58.02614 -3.48354 33773 ft 473 kts 311°
2026-04-15 07:30 58.07444 -3.56815 33772 ft 473 kts 311°
2026-04-15 07:30 58.12259 -3.65281 33779 ft 473 kts 311°
2026-04-15 07:31 58.17071 -3.73777 33765 ft 474 kts 311°
2026-04-15 07:31 58.21883 -3.82308 33761 ft 477 kts 311°
2026-04-15 07:32 58.26725 -3.90919 33762 ft 477 kts 310°
2026-04-15 07:32 58.31562 -3.99555 33742 ft 477 kts 310°
2026-04-15 07:33 58.36399 -4.08226 33742 ft 477 kts 310°
2026-04-15 07:33 58.41222 -4.16907 33759 ft 476 kts 310°
2026-04-15 07:34 58.46013 -4.25564 33729 ft 476 kts 310°
2026-04-15 07:34 58.50820 -4.34285 33725 ft 476 kts 310°
2026-04-15 07:35 58.55623 -4.43038 33723 ft 478 kts 310°
2026-04-15 07:35 58.60423 -4.51820 33708 ft 480 kts 310°
2026-04-15 07:36 58.65249 -4.60678 33705 ft 480 kts 310°
2026-04-15 07:36 58.70077 -4.69578 33705 ft 480 kts 310°
2026-04-15 07:37 58.74860 -4.78430 33705 ft 480 kts 310°
2026-04-15 07:37 58.79679 -4.87386 33694 ft 479 kts 310°
2026-04-15 07:38 58.84480 -4.96345 33694 ft 480 kts 310°
2026-04-15 07:38 58.89243 -5.05270 33694 ft 480 kts 310°
2026-04-15 07:39 58.94043 -5.14301 33692 ft 482 kts 310°
2026-04-15 07:39 58.98857 -5.23399 33680 ft 483 kts 310°
2026-04-15 07:40 59.03663 -5.32513 33679 ft 483 kts 310°
2026-04-15 07:40 59.08461 -5.41650 33674 ft 483 kts 310°
2026-04-15 07:41 59.13233 -5.50776 33675 ft 483 kts 309°
2026-04-15 07:41 59.18020 -5.59971 33678 ft 483 kts 309°
2026-04-15 07:42 59.22004 -5.67651 33667 ft 482 kts 309°
2026-04-15 07:42 59.27541 -5.78367 33675 ft 482 kts 309°
2026-04-15 07:43 59.31533 -5.86132 33679 ft 484 kts 309°
2026-04-15 07:43 59.36284 -5.95407 33665 ft 486 kts 309°
2026-04-15 07:44 59.41073 -6.04791 33665 ft 486 kts 309°
2026-04-15 07:44 59.45865 -6.14219 33674 ft 486 kts 309°
2026-04-15 07:45 59.50634 -6.23642 33667 ft 485 kts 309°
2026-04-15 07:45 59.55364 -6.33029 33658 ft 485 kts 309°
2026-04-15 07:46 59.60122 -6.42515 33661 ft 485 kts 309°
2026-04-15 07:46 59.64867 -6.52013 33661 ft 485 kts 309°
2026-04-15 07:47 59.69610 -6.61551 33647 ft 488 kts 309°
2026-04-15 07:47 59.74350 -6.71126 33651 ft 490 kts 309°
2026-04-15 07:48 59.79127 -6.80807 33653 ft 489 kts 309°
2026-04-15 07:48 59.83885 -6.90495 33653 ft 489 kts 308°
2026-04-15 07:49 59.88609 -7.00158 33659 ft 489 kts 308°
2026-04-15 07:49 59.93362 -7.09923 33658 ft 489 kts 308°
2026-04-15 07:50 59.98091 -7.19683 33649 ft 489 kts 309°
2026-04-15 07:50 60.02824 -7.29491 33646 ft 489 kts 308°
2026-04-15 07:51 60.07545 -7.39319 33650 ft 489 kts 308°
2026-04-15 07:51 60.12226 -7.49106 33639 ft 489 kts 308°
2026-04-15 07:52 60.16932 -7.58990 33638 ft 489 kts 308°
2026-04-15 07:52 60.21633 -7.68908 33643 ft 491 kts 308°
2026-04-15 07:53 60.26357 -7.78926 33635 ft 498 kts 308°
2026-04-15 07:53 60.31158 -7.89151 33639 ft 504 kts 308°
2026-04-15 07:54 60.35999 -7.99498 33638 ft 507 kts 308°
2026-04-15 07:54 60.40834 -8.09869 33660 ft 505 kts 308°
2026-04-15 07:55 60.45635 -8.20231 33631 ft 509 kts 308°
2026-04-15 07:56 60.52904 -8.36013 33630 ft 509 kts 307°
2026-04-15 07:56 60.57707 -8.46497 33622 ft 509 kts 307°
2026-04-15 07:57 60.62530 -8.57077 33620 ft 509 kts 307°
2026-04-15 07:57 60.67335 -8.67670 33619 ft 509 kts 307°
2026-04-15 07:58 60.71731 -8.78755 33615 ft 498 kts 294°
2026-04-15 07:58 60.75005 -8.91148 33669 ft 493 kts 289°
2026-04-15 07:59 60.77968 -9.03804 33614 ft 493 kts 288°
2026-04-15 07:59 60.80892 -9.16537 33608 ft 493 kts 288°
2026-04-15 08:00 60.83818 -9.29192 33606 ft 494 kts 288°
2026-04-15 08:00 60.86770 -9.41936 33601 ft 494 kts 288°
2026-04-15 08:01 60.89711 -9.54682 33600 ft 494 kts 288°
2026-04-15 08:01 60.92625 -9.67392 33657 ft 493 kts 288°
2026-04-15 08:02 60.95548 -9.80227 33592 ft 496 kts 288°
2026-04-15 08:02 60.98455 -9.93071 33594 ft 497 kts 288°
2026-04-15 08:03 61.01402 -10.05973 33588 ft 497 kts 289°
2026-04-15 08:03 61.04590 -10.18681 33587 ft 499 kts 291°
2026-04-15 08:04 61.07822 -10.31365 33579 ft 498 kts 290°
2026-04-15 08:04 61.10986 -10.44005 33581 ft 498 kts 290°
2026-04-15 08:05 61.14145 -10.56836 33568 ft 502 kts 289°
2026-04-15 08:05 61.17311 -10.69802 33579 ft 504 kts 289°
2026-04-15 08:06 61.20448 -10.82703 33577 ft 504 kts 289°
2026-04-15 08:06 61.23596 -10.95724 33557 ft 504 kts 289°
2026-04-15 08:07 61.26726 -11.08748 33574 ft 504 kts 289°
2026-04-15 08:07 61.29844 -11.21801 33572 ft 504 kts 289°
2026-04-15 08:08 61.32954 -11.34910 33566 ft 507 kts 289°
2026-04-15 08:08 61.36077 -11.48156 33564 ft 509 kts 289°
2026-04-15 08:09 61.39174 -11.61354 33556 ft 509 kts 289°
2026-04-15 08:09 61.42283 -11.74686 33559 ft 509 kts 288°
2026-04-15 08:10 61.45366 -11.87988 33554 ft 507 kts 288°
2026-04-15 08:10 61.48406 -12.01195 33552 ft 507 kts 288°
2026-04-15 08:11 61.51457 -12.14539 33556 ft 510 kts 288°
2026-04-15 08:11 61.54517 -12.28009 33543 ft 512 kts 288°
2026-04-15 08:12 61.57572 -12.41524 33546 ft 512 kts 288°
2026-04-15 08:12 61.60619 -12.55089 33537 ft 512 kts 288°
2026-04-15 08:13 61.63624 -12.68556 33536 ft 512 kts 288°
2026-04-15 08:13 61.66633 -12.82128 33537 ft 510 kts 288°
2026-04-15 08:14 61.69619 -12.95691 33533 ft 511 kts 288°
2026-04-15 08:14 61.72607 -13.09355 33534 ft 513 kts 288°
2026-04-15 08:15 61.75582 -13.23037 33527 ft 513 kts 288°
2026-04-15 08:15 61.78546 -13.36755 33528 ft 513 kts 287°
2026-04-15 08:16 61.81495 -13.50497 33528 ft 513 kts 287°
2026-04-15 08:16 61.84410 -13.64169 33523 ft 513 kts 287°
2026-04-15 08:17 61.87332 -13.77967 33523 ft 513 kts 287°
2026-04-15 08:17 61.90246 -13.91833 33517 ft 514 kts 287°
2026-04-15 08:18 61.93134 -14.05650 33517 ft 514 kts 287°
2026-04-15 08:18 61.96021 -14.19556 33517 ft 514 kts 287°
2026-04-15 08:19 61.98897 -14.33508 33513 ft 514 kts 287°
2026-04-15 08:19 62.01741 -14.47395 33509 ft 514 kts 286°
2026-04-15 08:20 62.04586 -14.61386 33512 ft 515 kts 287°
2026-04-15 08:20 62.07429 -14.75464 33506 ft 516 kts 286°
2026-04-15 08:21 62.10234 -14.89437 33503 ft 515 kts 286°
2026-04-15 08:21 62.13055 -15.03595 33504 ft 515 kts 286°
2026-04-15 08:22 62.15827 -15.17607 33509 ft 515 kts 286°
2026-04-15 08:22 62.18604 -15.31744 33495 ft 515 kts 286°
2026-04-15 08:23 62.21364 -15.45896 33498 ft 514 kts 285°
2026-04-15 08:23 62.24112 -15.60082 33492 ft 514 kts 285°
2026-04-15 08:24 62.26838 -15.74254 33490 ft 514 kts 285°
2026-04-15 08:24 62.29536 -15.88378 33490 ft 513 kts 285°
2026-04-15 08:25 62.32228 -16.02577 33490 ft 513 kts 285°
2026-04-15 08:25 62.34913 -16.16840 33484 ft 513 kts 285°
2026-04-15 08:26 62.37580 -16.31114 33513 ft 513 kts 285°
2026-04-15 08:26 62.40219 -16.45350 33476 ft 515 kts 285°
2026-04-15 08:27 62.42867 -16.59720 33476 ft 515 kts 285°
2026-04-15 08:27 62.45492 -16.74069 33473 ft 514 kts 285°
2026-04-15 08:28 62.48104 -16.88455 33470 ft 513 kts 284°
2026-04-15 08:28 62.50697 -17.02854 33468 ft 513 kts 284°
2026-04-15 08:29 62.53273 -17.17264 33509 ft 513 kts 285°
2026-04-15 08:29 62.55839 -17.31731 33468 ft 514 kts 285°
2026-04-15 08:30 62.58391 -17.46216 33466 ft 514 kts 284°
2026-04-15 08:30 62.60919 -17.60676 33465 ft 514 kts 284°
2026-04-15 08:31 62.63024 -17.72799 33463 ft 514 kts 284°
2026-04-15 08:31 62.65532 -17.87345 33461 ft 512 kts 284°
2026-04-15 08:32 62.68003 -18.01797 33456 ft 512 kts 284°
2026-04-15 08:32 62.70476 -18.16375 33456 ft 512 kts 285°
2026-04-15 08:33 62.72922 -18.30905 33454 ft 512 kts 284°
2026-04-15 08:33 62.75366 -18.45524 33450 ft 512 kts 284°
2026-04-15 08:34 62.77789 -18.60143 33448 ft 512 kts 284°
2026-04-15 08:34 62.80199 -18.74795 33439 ft 512 kts 284°
2026-04-15 08:35 62.82577 -18.89365 33451 ft 511 kts 284°
2026-04-15 08:35 62.84948 -19.04017 33450 ft 511 kts 285°
2026-04-15 08:36 62.87308 -19.18717 33446 ft 511 kts 285°
2026-04-15 08:36 62.89657 -19.33467 33444 ft 511 kts 284°
2026-04-15 08:37 62.91985 -19.48205 33436 ft 511 kts 284°
2026-04-15 08:37 62.94298 -19.62966 33435 ft 511 kts 284°
2026-04-15 08:38 62.96582 -19.77659 33437 ft 511 kts 284°
2026-04-15 08:38 62.98867 -19.92486 33431 ft 511 kts 285°
2026-04-15 08:39 63.01108 -20.07320 33426 ft 509 kts 283°
2026-04-15 08:39 63.03163 -20.22237 33426 ft 508 kts 282°
2026-04-15 08:40 63.05166 -20.37190 33414 ft 508 kts 282°
2026-04-15 08:40 63.07162 -20.52047 33415 ft 508 kts 282°
2026-04-15 08:41 63.09175 -20.67034 33411 ft 508 kts 282°
2026-04-15 08:41 63.11177 -20.82044 33427 ft 508 kts 283°
2026-04-15 08:42 63.13145 -20.96930 33406 ft 506 kts 283°
2026-04-15 08:42 63.15101 -21.11885 33401 ft 505 kts 283°
2026-04-15 08:43 63.17031 -21.26787 33398 ft 505 kts 282°
2026-04-15 08:43 63.18954 -21.41770 33390 ft 505 kts 282°
2026-04-15 08:44 63.20863 -21.56779 33390 ft 505 kts 282°
2026-04-15 08:44 63.22757 -21.71824 33418 ft 505 kts 282°
2026-04-15 08:45 63.24616 -21.86732 33383 ft 502 kts 283°
2026-04-15 08:45 63.26464 -22.01696 33384 ft 501 kts 282°
2026-04-15 08:46 63.28294 -22.16665 33379 ft 501 kts 283°
2026-04-15 08:46 63.30099 -22.31570 33378 ft 501 kts 282°
2026-04-15 08:47 63.31892 -22.46530 33371 ft 501 kts 282°
2026-04-15 08:47 63.33679 -22.61581 33376 ft 501 kts 282°
2026-04-15 08:48 63.35437 -22.76542 33376 ft 503 kts 283°
2026-04-15 08:48 63.37195 -22.91663 33375 ft 503 kts 283°
2026-04-15 08:49 63.38929 -23.06728 33389 ft 503 kts 282°
2026-04-15 08:49 63.40659 -23.21912 33389 ft 503 kts 282°
2026-04-15 08:50 63.42367 -23.37067 33393 ft 507 kts 282°
2026-04-15 08:50 63.44076 -23.52381 33406 ft 507 kts 282°
2026-04-15 08:51 63.45764 -23.67689 33416 ft 508 kts 282°
2026-04-15 08:51 63.47444 -23.83104 33421 ft 513 kts 282°
2026-04-15 08:52 63.49108 -23.98531 33430 ft 512 kts 282°
2026-04-15 08:52 63.50751 -24.13896 33423 ft 507 kts 282°
2026-04-15 08:53 63.52383 -24.29365 33423 ft 512 kts 282°
2026-04-15 08:53 63.54010 -24.44949 33435 ft 511 kts 282°
2026-04-15 08:54 63.55604 -24.60387 33433 ft 504 kts 281°
2026-04-15 08:54 63.57165 -24.75692 33438 ft 510 kts 281°
2026-04-15 08:55 63.58735 -24.91318 33443 ft 512 kts 281°
2026-04-15 08:55 63.60280 -25.06854 33451 ft 507 kts 281°
2026-04-15 08:56 63.61808 -25.22380 33449 ft 509 kts 280°
2026-04-15 08:56 63.63328 -25.38026 33464 ft 513 kts 281°
2026-04-15 08:57 63.64816 -25.53534 33482 ft 505 kts 281°
2026-04-15 08:57 63.66287 -25.69035 33459 ft 508 kts 281°
2026-04-15 08:58 63.67751 -25.84671 33481 ft 510 kts 281°
2026-04-15 08:58 63.69905 -26.08029 33472 ft 505 kts 280°
2026-04-15 08:59 63.71318 -26.23604 33481 ft 509 kts 280°
2026-04-15 08:59 63.72721 -26.39294 33496 ft 509 kts 280°
2026-04-15 09:00 63.74102 -26.54912 33492 ft 505 kts 280°
2026-04-15 09:00 63.75455 -26.70426 33502 ft 507 kts 280°
2026-04-15 09:01 63.76808 -26.86152 33518 ft 507 kts 280°
2026-04-15 09:01 63.78123 -27.01634 33509 ft 500 kts 279°
2026-04-15 09:02 63.79421 -27.17142 33514 ft 503 kts 279°
2026-04-15 09:02 63.80707 -27.32722 33535 ft 503 kts 279°
2026-04-15 09:03 63.81959 -27.48107 33551 ft 499 kts 279°
2026-04-15 09:03 63.83201 -27.63570 33541 ft 500 kts 279°
2026-04-15 09:04 63.84426 -27.79047 33552 ft 497 kts 279°
2026-04-15 09:04 63.85627 -27.94429 33559 ft 495 kts 279°
2026-04-15 09:05 63.86813 -28.09858 33563 ft 498 kts 278°
2026-04-15 09:05 63.87985 -28.25325 33574 ft 494 kts 278°
2026-04-15 09:06 63.89120 -28.40548 33579 ft 493 kts 278°
2026-04-15 09:06 63.90249 -28.55910 33577 ft 489 kts 279°
2026-04-15 09:07 63.91346 -28.71058 33577 ft 483 kts 279°
2026-04-15 09:07 63.92421 -28.86131 33591 ft 483 kts 278°
2026-04-15 09:08 63.93485 -29.01289 33590 ft 485 kts 278°
2026-04-15 09:08 63.94525 -29.16328 33600 ft 484 kts 278°
2026-04-15 09:09 63.95554 -29.31430 33609 ft 480 kts 277°
2026-04-15 09:09 63.96556 -29.46368 33617 ft 475 kts 277°
2026-04-15 09:10 63.97534 -29.61211 33619 ft 473 kts 277°
2026-04-15 09:10 63.98494 -29.76045 33632 ft 473 kts 277°
2026-04-15 09:11 63.99439 -29.90893 33630 ft 473 kts 277°
2026-04-15 09:11 64.00341 -30.05733 33630 ft 473 kts 275°
2026-04-15 09:12 64.00857 -30.20658 33629 ft 472 kts 272°
2026-04-15 09:12 64.01242 -30.35505 33645 ft 472 kts 272°
2026-04-15 09:13 64.01663 -30.50439 33662 ft 471 kts 272°
2026-04-15 09:13 64.02107 -30.65290 33652 ft 467 kts 273°
2026-04-15 09:14 64.02546 -30.80081 33665 ft 467 kts 272°
2026-04-15 09:14 64.02970 -30.94871 33668 ft 467 kts 272°
2026-04-15 09:15 64.03376 -31.09676 33671 ft 468 kts 272°
2026-04-15 09:15 64.03766 -31.24500 33668 ft 466 kts 272°
2026-04-15 09:16 64.04137 -31.39216 33692 ft 467 kts 272°
2026-04-15 09:16 64.04496 -31.54018 33691 ft 465 kts 271°
2026-04-15 09:17 64.04839 -31.68744 33685 ft 465 kts 272°
2026-04-15 09:17 64.05169 -31.83536 33691 ft 466 kts 271°
2026-04-15 09:18 64.05431 -31.95802 33703 ft 465 kts 271°
2026-04-15 09:18 64.05780 -32.12977 33707 ft 466 kts 271°
2026-04-15 09:19 64.06064 -32.27773 33705 ft 465 kts 271°
2026-04-15 09:19 64.06290 -32.40154 33720 ft 466 kts 272°
2026-04-15 09:20 64.06545 -32.54889 33720 ft 466 kts 271°
2026-04-15 09:20 64.06787 -32.69707 33732 ft 466 kts 271°
2026-04-15 09:21 64.07014 -32.84528 33719 ft 467 kts 271°
2026-04-15 09:21 64.07226 -32.99361 33743 ft 466 kts 271°
2026-04-15 09:22 64.07421 -33.14094 33751 ft 467 kts 271°
2026-04-15 09:22 64.07603 -33.28902 33760 ft 466 kts 270°
2026-04-15 09:23 64.07769 -33.43748 33746 ft 467 kts 271°
2026-04-15 09:23 64.07921 -33.58575 33766 ft 466 kts 271°
2026-04-15 09:24 64.08057 -33.73407 33771 ft 467 kts 270°
2026-04-15 09:24 64.08179 -33.88256 33763 ft 466 kts 270°
2026-04-15 09:25 64.08285 -34.03094 33766 ft 467 kts 270°
2026-04-15 09:25 64.08376 -34.17858 33773 ft 466 kts 270°
2026-04-15 09:26 64.08451 -34.32700 33779 ft 467 kts 270°
2026-04-15 09:26 64.08513 -34.47537 33766 ft 466 kts 270°
2026-04-15 09:27 64.08558 -34.62370 33784 ft 466 kts 270°
2026-04-15 09:27 64.08589 -34.77179 33793 ft 465 kts 269°
2026-04-15 09:28 64.08604 -34.91860 33794 ft 465 kts 269°
2026-04-15 09:28 64.08605 -35.06669 33787 ft 465 kts 269°
2026-04-15 09:29 64.08591 -35.21457 33811 ft 465 kts 269°
2026-04-15 09:29 64.08562 -35.36242 33805 ft 464 kts 269°
2026-04-15 09:30 64.08518 -35.51008 33804 ft 464 kts 269°
2026-04-15 09:30 64.08459 -35.65751 33816 ft 464 kts 268°
2026-04-15 09:31 64.08384 -35.80479 33823 ft 464 kts 269°
2026-04-15 09:31 64.08296 -35.95160 33817 ft 464 kts 268°
2026-04-15 09:32 64.08192 -36.09872 33816 ft 462 kts 268°
2026-04-15 09:32 64.08075 -36.24587 33834 ft 461 kts 268°
2026-04-15 09:33 64.07943 -36.39135 33840 ft 460 kts 268°
2026-04-15 09:33 64.07795 -36.53774 33838 ft 460 kts 267°
2026-04-15 09:34 64.07633 -36.68392 33836 ft 460 kts 268°
2026-04-15 09:34 64.07457 -36.83036 33859 ft 460 kts 267°
2026-04-15 09:35 64.07267 -36.97543 33852 ft 460 kts 268°
2026-04-15 09:35 64.07062 -37.12196 33864 ft 460 kts 267°
2026-04-15 09:36 64.06841 -37.26779 33854 ft 459 kts 267°
2026-04-15 09:36 64.06608 -37.41394 33871 ft 457 kts 266°
2026-04-15 09:37 64.06361 -37.55773 33873 ft 457 kts 266°
2026-04-15 09:37 64.06098 -37.70297 33876 ft 456 kts 266°
2026-04-15 09:38 64.05822 -37.84765 33870 ft 457 kts 266°
2026-04-15 09:38 64.05532 -37.99270 33889 ft 456 kts 266°
2026-04-15 09:39 64.05226 -38.13740 33892 ft 457 kts 265°
2026-04-15 09:39 64.04908 -38.28195 33887 ft 453 kts 265°
2026-04-15 09:40 64.04577 -38.42504 33906 ft 456 kts 265°
2026-04-15 09:40 64.04229 -38.56954 33902 ft 454 kts 265°
2026-04-15 09:41 64.03868 -38.71396 33921 ft 456 kts 265°
2026-04-15 09:41 64.03492 -38.85836 33908 ft 455 kts 265°
2026-04-15 09:42 64.03101 -39.00287 33921 ft 456 kts 265°
2026-04-15 09:42 64.02698 -39.14714 33922 ft 454 kts 264°
2026-04-15 09:43 64.02283 -39.29006 33926 ft 454 kts 263°
2026-04-15 09:43 64.01851 -39.43365 33927 ft 454 kts 264°
2026-04-15 09:44 64.01403 -39.57748 33936 ft 454 kts 264°
2026-04-15 09:44 64.00944 -39.72092 33934 ft 454 kts 264°
2026-04-15 09:45 64.00471 -39.86459 33938 ft 453 kts 263°
2026-04-15 09:45 63.99984 -40.00801 33947 ft 455 kts 263°
2026-04-15 09:46 63.99231 -40.14999 33948 ft 454 kts 259°
2026-04-15 09:46 63.98227 -40.29212 33945 ft 455 kts 258°
2026-04-15 09:47 63.97233 -40.43442 33945 ft 455 kts 259°
2026-04-15 09:47 63.96273 -40.57677 33955 ft 455 kts 259°
2026-04-15 09:48 63.95316 -40.71926 33966 ft 455 kts 259°
2026-04-15 09:48 63.94350 -40.86149 33956 ft 455 kts 259°
2026-04-15 09:49 63.93367 -41.00361 33971 ft 454 kts 258°
2026-04-15 09:49 63.92375 -41.14464 33969 ft 454 kts 258°
2026-04-15 09:50 63.91363 -41.28644 33983 ft 454 kts 258°
2026-04-15 09:50 63.90338 -41.42804 33972 ft 454 kts 258°
2026-04-15 09:51 63.89299 -41.56955 34000 ft 454 kts 258°
2026-04-15 09:51 63.88248 -41.71085 33978 ft 454 kts 257°
2026-04-15 09:52 63.87185 -41.85190 33978 ft 453 kts 257°
2026-04-15 09:52 63.86105 -41.99286 33986 ft 453 kts 257°
2026-04-15 09:53 63.85013 -42.13369 33985 ft 453 kts 257°
2026-04-15 09:53 63.83916 -42.27337 33984 ft 453 kts 257°
2026-04-15 09:54 63.82797 -42.41406 33987 ft 453 kts 257°
2026-04-15 09:54 63.81666 -42.55441 33998 ft 453 kts 256°
2026-04-15 09:55 63.80520 -42.69471 34007 ft 453 kts 256°
2026-04-15 09:55 63.79359 -42.83512 33998 ft 454 kts 256°
2026-04-15 09:56 63.78185 -42.97542 34000 ft 454 kts 256°
2026-04-15 09:57 63.76402 -43.18512 34007 ft 454 kts 255°
2026-04-15 09:57 63.75191 -43.32534 34007 ft 455 kts 255°
2026-04-15 09:58 63.73966 -43.46559 34004 ft 454 kts 255°
2026-04-15 09:58 63.72728 -43.60562 34004 ft 454 kts 255°
2026-04-15 09:59 63.71485 -43.74455 34007 ft 454 kts 255°
2026-04-15 09:59 63.70220 -43.88434 34007 ft 454 kts 255°
2026-04-15 10:00 63.68941 -44.02400 34008 ft 454 kts 255°
2026-04-15 10:00 63.67651 -44.16331 34007 ft 454 kts 255°
2026-04-15 10:01 63.66346 -44.30268 34003 ft 454 kts 255°
2026-04-15 10:01 63.65028 -44.44180 34015 ft 454 kts 254°
2026-04-15 10:02 63.63708 -44.57681 34058 ft 434 kts 250°
2026-04-15 10:02 63.62923 -44.64137 33982 ft 422 kts 251°
2026-04-15 10:02 63.62125 -44.70449 33503 ft 419 kts 250°
2026-04-15 10:02 63.61302 -44.76759 32992 ft 419 kts 249°
2026-04-15 10:03 63.60469 -44.82903 32656 ft 413 kts 249°
2026-04-15 10:03 63.59732 -44.88350 28954 ft 224 kts 252°
2026-04-15 10:03 63.59524 -44.87867 17019 ft 282 kts 140°
2026-04-15 10:03 63.57687 -44.87953 9163 ft 74 kts 285°
2026-04-15 10:04 63.57561 -44.88039 9123 ft 0 kts 120°
2026-04-15 10:04 63.57561 -44.88038 9128 ft 0 kts 120°
2026-04-15 10:05 64.04241 -31.43440 31953 ft 467 kts 272°
2026-04-15 10:05 64.04330 -31.48495 33849 ft 467 kts 271°
2026-04-15 10:05 64.04491 -31.55954 33754 ft 473 kts 271°
2026-04-15 10:06 64.04857 -31.70785 33680 ft 465 kts 272°
2026-04-15 10:06 64.05207 -31.85556 33701 ft 465 kts 272°
2026-04-15 10:07 64.05525 -32.00309 33696 ft 465 kts 272°